User: anonymous   Login
Location: Lone Wolf Observatory
(41.0360°N, 89.2260°W)
Time: 15:46:47
(UTC-05:00)
Language:

Cosmos 1378 Rocket - Orbit

View from above orbital plane
View from above orbital plane
View from above satellite
View from above satellite

Ground track
Ground track

The orbit data is extracted from the following two-line orbital elements,

1 13272U 82059B   17176.25904186 +.00000065 +00000-0 +47487-5 0  9992
2 13272 082.5109 131.5924 0020205 091.0166 269.3365 14.84596524872008
Epoch (UTC): 25 June 2017 06:13:01
Eccentricity: 0.0020205
inclination: 82.5109°
perigee height: 601 km
apogee height: 629 km
right ascension of ascending node: 131.5924°
argument of perigee: 91.0166°
revolutions per day: 14.84596524
mean anomaly at epoch: 269.3365°
orbit number at epoch: 87200

The dashed part of the orbit path shows where the satellite is in the earth's shadow,  

DLR